Terminal Aerodrome Forecast
Issued by NWS Missoula, MT

Home | Current Version | Previous Version | Text Only | Print | Product List | Glossary On
Versions: 1 2 3 4 5 6 7 8 9 10 11 12 13
000
FTUS45 KMSO 021120
TAFBTM
TAF
KBTM 021120Z 0212/0312 VRB04KT P6SM SCT100
     FM021800 31015G25KT P6SM BKN080
     FM030300 17006KT P6SM SCT120=

USA.gov is the U.S. government's official web portal to all federal, state and local government web resources and services.